Location: Nairn
(57.5833°N, 3.8667°W)
Time: 02:37:27
(UTC+00:00)

Vanguard 1 Rocket - Pass Details

Date: 01 December 2020
Orbit: 655 x 4221 km, 34.3° (Epoch: 20 January)

Event Time Altitude Azimuth Distance (km) Brightness Sun altitude
Exits shadow 00:59:59 23° 128° (SE) 5,617 11.2 -52.9°
Drops below altitude 10° 01:07:47 10° 106° (ESE) 6,094 11.6 -52.5°
Sets 01:12:36 0° 96° (E) 6,643 12.0 -52.2°
